Location: San Pelegr�n
(42.1868°N, 0.0079°E)
Time: 17:30:59
(UTC+00:00)

Envisat - Pass Details

Date: 24 January 2020
Orbit: 764 x 766 km, 98.1° (Epoch: 22 February)

Event Time Altitude Azimuth Distance (km) Brightness Sun altitude
Rises 18:03:40 0° 174° (S) 3,218 6.4 -11.3°
Reaches altitude 10° 18:05:59 10° 178° (S) 2,296 5.6 -11.7°
Maximum altitude 18:10:59 63° 259° (W) 857 3.6 -12.6°
Drops below altitude 10° 18:16:03 10° 340° (NNW) 2,312 5.6 -13.5°
Sets 18:18:23 0° 344° (NNW) 3,242 6.3 -13.9°
